Ketchikan, AK

10:05 PM AKDT on September 22, 2018 (GMT -0800)
Ketchikan International

Weather History for PAKT - March, 2018

Change the Weather History Date:

Monday, March 5, 2018

  Actual Average Record
Temperature  
Mean Temperature 36 °F -  
Max Temperature 39 °F 42 °F 51 °F (1965)
Min Temperature 32 °F 32 °F 9 °F (1951)
Degree Days  
Heating Degree Days 30    
Moisture  
Dew Point 27 °F    
Average Humidity 72    
Maximum Humidity 82    
Minimum Humidity 62    
Precipitation  
Precipitation 0.00 in - - ()
Sea Level Pressure  
Sea Level Pressure 30.35 in    
Wind  
Wind Speed 3 mph (SSE)    
Max Wind Speed 7 mph    
Max Gust Speed -    
Visibility 10 miles    
Events Snow    
Averages and records for this station are not official NWS values.
T = Trace of Precipitation, MM = Missing Value Source: NWS Daily Summary

Daily Weather History Graph

Daily Weather History Graph

Search for Another Location

Airport or City:

Astronomy

Mar. 05, 2018 Rise Set
Actual Time 6:26 AM AKST 5:30 PM AKST
Civil Twilight 5:50 AM AKST 6:07 PM AKST
Nautical Twilight 5:08 AM AKST 6:49 PM AKST
Astronomical Twilight 4:25 AM AKST 7:32 PM AKST
Moon 10:26 PM AKST (3/5) 8:14 AM AKST (3/5)
Length of Visible Light 12h 17m
Length of Day
11h 03m
Waning Gibbous, 83% of the Moon is Illuminated
Mar 5
Waning Gibbous
Mar 9
Last Quarter
Mar 17
New
Mar 24
First Quarter
Mar 31
Full

Hourly Weather History & Observations

Time (AKST) Temp. Windchill Dew Point Humidity Pressure Visibility Wind Dir Wind Speed Gust Speed Precip Events Conditions
12:53 AM 35.1 °F 32.2 °F 25.0 °F 67% 30.29 in 10.0 mi SSE 3.5 mph - N/A   Overcast
1:53 AM 34.0 °F 31.0 °F 26.1 °F 73% 30.29 in 10.0 mi South 3.5 mph - N/A   Overcast
2:53 AM 35.1 °F 32.2 °F 26.1 °F 70% 30.30 in 10.0 mi South 3.5 mph - N/A   Overcast
3:53 AM 35.1 °F - 26.1 °F 70% 30.30 in 10.0 mi Calm Calm - N/A   Overcast
4:53 AM 32.0 °F 28.7 °F 26.1 °F 79% 30.32 in 10.0 mi SSW 3.5 mph - N/A   Overcast
5:53 AM 33.1 °F - 26.1 °F 75% 30.32 in 10.0 mi Calm Calm - N/A   Overcast
6:01 AM 32.0 °F - 27.0 °F 82% 30.31 in 10.0 mi Calm Calm - N/A   Overcast
6:53 AM 33.8 °F - 26.6 °F 75% 30.33 in 10.0 mi Calm Calm - N/A   Overcast
7:53 AM 35.6 °F - 24.8 °F 65% 30.34 in 10.0 mi Calm Calm - N/A   Overcast
8:53 AM 35.6 °F 31.7 °F 24.8 °F 65% 30.35 in 10.0 mi WNW 4.6 mph - N/A   Overcast
9:53 AM 37.0 °F - 25.0 °F 62% 30.36 in 10.0 mi Calm Calm - N/A   Overcast
10:53 AM 37.4 °F 34.9 °F 26.6 °F 65% 30.37 in 10.0 mi ESE 3.5 mph - N/A   Overcast
11:53 AM 37.4 °F 32.8 °F 26.6 °F 65% 30.37 in 10.0 mi ESE 5.8 mph - N/A   Mostly Cloudy
12:53 PM 39.2 °F 34.2 °F 28.4 °F 65% 30.36 in 10.0 mi ESE 6.9 mph - N/A   Mostly Cloudy
1:53 PM 37.4 °F 34.9 °F 28.4 °F 70% 30.36 in 7.0 mi ESE 3.5 mph - N/A Snow Light Snow
2:53 PM 37.4 °F 32.1 °F 28.4 °F 70% 30.36 in 10.0 mi ESE 6.9 mph - N/A   Mostly Cloudy
3:53 PM 37.4 °F 32.1 °F 28.4 °F 70% 30.36 in 9.0 mi SE 6.9 mph - N/A   Overcast
4:53 PM 37.4 °F 33.8 °F 26.6 °F 65% 30.36 in 10.0 mi SSE 4.6 mph - N/A   Mostly Cloudy
5:53 PM 33.8 °F 29.6 °F 26.6 °F 75% 30.37 in 10.0 mi SSW 4.6 mph - N/A   Mostly Cloudy
6:53 PM 35.1 °F 31.0 °F 28.0 °F 76% 30.37 in 10.0 mi South 4.6 mph - N/A   Overcast
7:53 PM 34.0 °F 31.0 °F 28.0 °F 79% 30.37 in 10.0 mi SSE 3.5 mph - N/A   Overcast
8:53 PM 33.1 °F - 28.0 °F 82% 30.37 in 10.0 mi Calm Calm - N/A   Overcast
9:53 PM 33.1 °F 28.7 °F 28.0 °F 82% 30.38 in 10.0 mi South 4.6 mph - N/A   Mostly Cloudy
10:53 PM 33.1 °F 30.0 °F 28.0 °F 82% 30.39 in 10.0 mi SE 3.5 mph - N/A   Overcast
11:53 PM 33.1 °F 30.0 °F 27.0 °F 78% 30.38 in 10.0 mi SE 3.5 mph - N/A   Overcast